642  
ASUS43 KOAX 270710  
RWRNE  
 
WEATHER ROUNDUP FOR NEBRASKA  
NATIONAL WEATHER SERVICE OMAHA NE  
200 AM CDT FRI APR 27 2018  
 
NOTES: SATELLITE DATA IS BEING USED TO AUGMENT CLOUD COVER ABOVE  
12000 FEET.  
"FAIR" INDICATES FEW OR NO CLOUDS BELOW 12,000 FEET WITH NO  
SIGNIFICANT WEATHER AND/OR S TO VISIBILITY
.  
 
 
NEZ001>004-019>022-054>056-270800-  
NEBRASKA PANHANDLE  
 
CITY SKY/WX TMP DP RH WIND PRES REMARKS
 
SCOTTSBLUFF CLEAR 35 30 82 N6 30.16F WCI 30  
ALLIANCE CLEAR 32 29 88 W9 30.13F WCI 24  
CHADRON CLEAR 34 31 88 SW7 30.12S WCI 28  
GORDON FAIR 35 31 85 W5 30.11F WCI 31  
KIMBALL CLEAR 34 28 79 W7 30.20F WCI 28  
SIDNEY CLEAR 28 25 88 W6 30.18F WCI 22  

 
 
NEZ057>060-069>072-079>082-270800-  
SOUTHWEST NEBRASKA  
 
CITY SKY/WX TMP DP RH WIND PRES REMARKS
 
NORTH PLATTE CLEAR 34 28 79 CALM 30.13F  
IMPERIAL CLEAR 39 31 72 SW7 30.16F WCI 34  
LEXINGTON CLEAR 36 29 76 NW6 30.13S WCI 31  
MCCOOK CLEAR 36 31 82 W8 30.14F WCI 30  
OGALLALA CLEAR 33 31 91 SW3 30.15F  

 
 
NEZ005>010-023>029-035>040-094-270800-  
NORTH CENTRAL NEBRASKA  
 
CITY SKY/WX TMP DP RH WIND PRES REMARKS
 
VALENTINE CLEAR 41 31 67 SW3 30.08F  
AINSWORTH CLEAR 42 33 69 W8 30.08S  
BROKEN BOW CLEAR 32 27 81 CALM 30.10F  
O'NEILL CLEAR 44 33 64 SW6 30.06F  
ORD CLEAR 33 28 81 CALM 30.08F  
THEDFORD CLEAR 38 30 72 W3 30.12S  

 
 
NEZ041-046>049-061>064-073>077-083>087-270800-  
SOUTH CENTRAL NEBRASKA  
 
CITY SKY/WX TMP DP RH WIND PRES REMARKS
 
GRAND ISLAND CLEAR 39 31 72 W8 30.11S WCI 33  
AURORA CLEAR 38 28 67 W6 30.10S WCI 34  
HASTINGS CLEAR 41 30 65 W7 30.11F  
HEBRON CLEAR 40 30 68 CALM 30.11S  
HOLDREGE CLEAR 38 30 72 W3 30.13R  
KEARNEY CLEAR 39 30 70 W3 30.12F  
YORK N/A 36 28 75 W7 30.09F WCI 30  

 
 
NEZ011>018-030>034-042>045-270800-  
NORTHEAST NEBRASKA  
 
CITY SKY/WX TMP DP RH WIND PRES REMARKS
 
NORFOLK CLEAR 37 31 78 CALM 30.05F  
ALBION CLEAR 35 32 89 CALM 30.08S  
BLAIR CLEAR 45 30 56 CALM 30.05S  
COLUMBUS CLEAR 37 30 75 W3 30.08F  
FREMONT CLEAR 38 30 72 W5 30.06F WCI 35  
TEKAMAH CLEAR 39 29 67 NW3 30.05S  
WAYNE CLEAR 34 32 94 S3 30.05S  

 
 
NEZ050>053-065>068-078-088>093-270800-  
SOUTHEAST NEBRASKA  
 
CITY SKY/WX TMP DP RH WIND PRES REMARKS
 
LINCOLN CLEAR 36 28 73 CALM 30.09S  
OMAHA EPPLEY CLEAR 44 32 62 CALM 30.05S  
BEATRICE CLEAR 40 31 71 CALM 30.09S  
FALLS CITY CLEAR 41 31 67 W9 30.06S  
NEBRASKA CITY CLEAR 45 31 58 NW7 30.06S  
PLATTSMOUTH CLEAR 46 30 53 W8 30.06S  

 
 
NEZ044-045-051>053-067-270800-  
OMAHA AREA  
 
CITY SKY/WX TMP DP RH WIND PRES REMARKS
 
OMAHA EPPLEY CLEAR 44 32 62 CALM 30.05S  
BLAIR CLEAR 45 30 56 CALM 30.05S  
FREMONT CLEAR 38 30 72 W5 30.06F WCI 35  
MILLARD CLEAR 44 32 63 CALM 30.06S  
OFFUTT AFB CLEAR 41 29 63 CALM 30.04F  
PLATTSMOUTH CLEAR 46 30 53 W8 30.06S  
WAHOO FAIR 44 29 56 W6 30.07S  

 
 
 
CLICK HERE TO GO TO PREVIOUS BULLETINS.

The Nexlab NE Page Main Text Page